TimeCEST,TemperatureF,Dew PointF,Humidity,Sea Level PressureIn,VisibilityMPH,Wind Direction,Wind SpeedMPH,Gust SpeedMPH,PrecipitationIn,Events,Conditions,WindDirDegrees,DateUTC
12:00 AM,51.8,51.8,100,30.01,6.2,SW,4.6,-,N/A,Rain,Light Rain,220,2013-05-10 22:00:00
1:00 AM,51.8,51.8,100,30.01,6.2,SSW,3.5,-,N/A,Rain,Light Rain,210,2013-05-10 23:00:00
2:00 AM,51.8,50.0,94,29.98,6.2,ESE,2.3,-,N/A,Rain,Light Rain,110,2013-05-11 00:00:00
3:00 AM,51.8,51.8,100,29.98,-9999.0,SSE,2.3,-,N/A,,Clear,150,2013-05-11 01:00:00
4:00 AM,51.8,50.0,94,29.98,6.2,Variable,2.3,-,N/A,,Overcast,0,2013-05-11 02:00:00
5:00 AM,51.8,50.0,94,29.98,6.2,Variable,1.2,-,N/A,,Overcast,0,2013-05-11 03:00:00
6:00 AM,51.8,51.8,100,29.98,6.2,WSW,2.3,-,N/A,,Overcast,240,2013-05-11 04:00:00
7:00 AM,53.6,51.8,94,29.98,-9999.0,NW,1.2,-,N/A,,Clear,320,2013-05-11 05:00:00
8:00 AM,53.6,51.8,94,29.98,6.2,NW,5.8,-,N/A,,Mostly Cloudy,320,2013-05-11 06:00:00
8:17 AM,53.6,51.8,94,29.98,5.0,WNW,3.5,-,N/A,,Overcast,300,2013-05-11 06:17:00
9:00 AM,55.4,51.8,88,29.98,5.0,Variable,2.3,-,N/A,,Mostly Cloudy,0,2013-05-11 07:00:00
9:19 AM,55.4,51.8,88,29.98,5.0,Variable,2.3,-,N/A,,Mostly Cloudy,0,2013-05-11 07:19:00
10:00 AM,57.2,53.6,88,29.98,6.2,Variable,2.3,-,N/A,,Mostly Cloudy,0,2013-05-11 08:00:00
10:24 AM,57.2,51.8,82,29.95,6.2,Variable,2.3,-,N/A,,Mostly Cloudy,0,2013-05-11 08:24:00
11:00 AM,57.2,53.6,88,29.95,6.2,Variable,2.3,-,N/A,,Mostly Cloudy,0,2013-05-11 09:00:00
12:00 PM,59.0,53.6,82,29.95,6.2,Variable,2.3,-,N/A,,Overcast,0,2013-05-11 10:00:00
1:00 PM,57.2,55.4,94,29.95,5.0,NW,8.1,-,N/A,Rain,Light Rain,310,2013-05-11 11:00:00
2:00 PM,57.2,53.6,88,29.95,6.2,West,6.9,-,N/A,Rain,Light Rain,270,2013-05-11 12:00:00
3:00 PM,57.2,55.4,94,29.92,6.2,WNW,11.5,-,N/A,Rain,Light Rain,300,2013-05-11 13:00:00
4:00 PM,55.4,53.6,94,29.95,6.2,NNW,6.9,-,N/A,Rain,Light Rain,330,2013-05-11 14:00:00
5:00 PM,53.6,50.0,88,29.95,6.2,NNW,8.1,-,N/A,Rain,Light Rain,330,2013-05-11 15:00:00
6:00 PM,53.6,51.8,94,29.95,6.2,WNW,9.2,-,N/A,Rain,Light Rain,300,2013-05-11 16:00:00
7:00 PM,53.6,51.8,94,29.95,6.2,WNW,6.9,-,N/A,Rain,Light Rain,290,2013-05-11 17:00:00
8:00 PM,53.6,50.0,88,29.95,6.2,West,3.5,-,N/A,,Mostly Cloudy,280,2013-05-11 18:00:00
9:00 PM,51.8,50.0,94,29.95,6.2,Calm,Calm,-,N/A,,Mostly Cloudy,0,2013-05-11 19:00:00
10:00 PM,50.0,48.2,94,29.95,-9999.0,WSW,3.5,-,N/A,,Clear,250,2013-05-11 20:00:00
11:00 PM,50.0,50.0,100,29.95,-9999.0,Calm,Calm,-,N/A,,Clear,0,2013-05-11 21:00:00